Terminal Aerodrome Forecast
Issued by NWS Hastings, NE

Home | Current Version | Previous Version | Text Only | Print | Product List | Glossary On
Versions: 1 2 3 4 5 6 7 8 9 10 11 12 13 14 15 16 17 18 19 20 21 22 23 24 25 26 27 28 29 30 31 32
000
FTUS43 KGID 211720
TAFGRI
TAF
KGRI 211720Z 2118/2218 VRB06KT P6SM SCT150
     FM220900 VRB06KT 4SM BR SCT150
     FM221300 VRB06KT P6SM SCT150=

USA.gov is the U.S. government's official web portal to all federal, state and local government web resources and services.